Regional Weather Roundup
Issued by NWS

Home | Current Version | Previous Version | Graphics & Text | Print | Product List | Glossary On
Versions: 1 2 3 4 5 6 7 8 9 10 11 12 13 14 15 16 17 18 19 20 21 22 23 24 25 26 27 28 29 30 31 32 33 34 35 36 37 38 39 40 41 42 43 44 45 46 47 48 49 50
000
ASUS43 KBIS 281910
RWRND
NORTH DAKOTA REGIONAL WEATHER ROUNDUP
NATIONAL WEATHER SERVICE EASTERN NORTH DAKOTA/GRAND FORKS ND
200 PM CDT WED JUN 28 2017

  NOTE: "FAIR" INDICATES FEW OR NO CLOUDS BELOW 12,000 FEET WITH NO
  SIGNIFICANT WEATHER AND/OR OBSTRUCTIONS TO VISIBILITY.

NDZ001>003-009>011-017-282000-
...NORTHWEST NORTH DAKOTA...

CITY           SKY/WX    TMP DP  RH WIND       PRES   REMARKS
WILLISTON      FAIR      82  40  22 NE8       29.73S
MINOT          FAIR      78  48  34 N18G25    29.67S
MINOT AFB      FAIR      76  47  35 N12       29.66S
$$

NDZ018>021-031>035-040>046-282000-
...SOUTHWEST NORTH DAKOTA...

CITY           SKY/WX    TMP DP  RH WIND       PRES   REMARKS
BISMARCK       FAIR      77  47  34 NW16G23   29.70R
DICKINSON      FAIR      81  33  17 NW12      29.73S
GARRISON         N/A     76  40  27 N12G22    29.69R
HETTINGER      FAIR      79  32  18 NW8G17    29.76S
$$

NDZ004>008-012>016-024-026-027-054-282000-
...NORTHEAST NORTH DAKOTA...

CITY           SKY/WX    TMP DP  RH WIND       PRES   REMARKS
GRAND FORKS    CLOUDY    62  62 100 N10       29.55R
GRAND FORKS AF CLOUDY    63  63 100 N9        29.56R
DEVILS LAKE    FAIR      71  58  63 N14       29.61R
$$

NDZ022-023-025-028>030-036>039-047>053-282000-
...SOUTHEAST NORTH DAKOTA...

CITY           SKY/WX    TMP DP  RH WIND       PRES   REMARKS
JAMESTOWN      FAIR      75  59  57 NW21G29   29.58S
FARGO          CLOUDY    66  62  87 NW16      29.50R
WAHPETON       MOCLDY    72  59  64 NW21G29   29.51R
$$




USA.gov is the U.S. government's official web portal to all federal, state and local government web resources and services.